Hourly Data Report for January 13, 2003

SHERBROOKE A
QUEBEC

45°26'00.000" N
71°41'00.000" W
241.40 m
7028124
71610
YSC

Download Data

Hourly Data (January 2003)
Hourly Data Report for January 13, 2003
TIME
LST
Temp Definition
°C
Dew Point Definition
°C
Rel Hum Definition
%
Precip. Amount Definition
mm

Wind Dir Definition
10's deg

Wind Spd Definition
km/h
Visibility Definition
km
Stn Press Definition
kPa
Hmdx Definition


Wind Chill Definition


Weather Definition


00:00 -9.8 -14.1 71   23 11 15.0 98.55   -15  
01:00 -9.6 -13.5 73   23 7 11.3 98.49   -14 Snow
02:00 -9.3 -12.3 79   22 7 3.1 98.46   -13 Snow
03:00 -9.1 -12.0 79   22 6 9.7 98.38   -12 Snow
04:00 -8.9 -11.6 81   18 4 15.0 98.28   -11 Snow
05:00 -9.1 -11.7 81   13 7 6.4 98.15   -13 Snow
06:00 -9.1 -11.8 81   10 6 8.0 98.06   -12 Snow
07:00 -8.9 -11.8 79   11 6 15.0 97.94   -12 Snow
08:00 -7.3 -11.2 74   16 9 24.1 97.81   -12 Snow
09:00 -6.3 -11.0 69   17 17 24.1 97.74   -13 Cloudy
10:00 -6.1 -11.8 64   18 20 24.1 97.66   -13 Cloudy
11:00 -6.0 -11.5 65   19 15 16.1 97.51   -12 Snow
12:00 -5.7 -11.9 62   21 15 19.3 97.37   -11 Snow
13:00 -5.9 -11.1 67   21 22 4.8 97.28   -13 Snow
14:00 -5.9 -10.2 72   19 17 1.2 97.21   -12 Snow
15:00 -5.9 -8.9 79   21 11 1.6 97.21   -11 Snow
16:00 -6.1 -9.3 78   21 11 19.3 97.23   -11 Snow Showers
17:00 -5.8 -10.1 72   24 24 16.1 97.32   -13 Snow Showers
18:00 -6.6 -12.0 65   25 24 15.0 97.40   -14  
19:00 -6.7 -12.9 61   25 28 15.0 97.49   -15  
20:00 -7.2 -12.7 65   25 28 15.0 97.56   -16  
21:00 -8.2 -13.7 65   25 30 15.0 97.62   -17  
22:00 -9.7 -14.9 66   24 26 15.0 97.74   -19  
23:00 -11.5 -16.2 68   26 28 5.6 97.84   -21 Snow

Notes on Data Quality.

Legend

  • E = Estimated
  • M = Missing
  • NA = Not Available*
  • [empty] = Indicates an unobserved value
Date modified: